owner,sensor,date,latitude,longitude,vertical_datum,sea_water_temperature,qcFlag 
COMPS,ioos:station:USF.COMPS:C10:1,2015-08-01T00:05:00Z,27.1690,-82.9260,-1.0,29.186,2 
COMPS,ioos:station:USF.COMPS:C10:1,2015-08-01T00:35:00Z,27.1690,-82.9260,-1.0,29.174,2 
COMPS,ioos:station:USF.COMPS:C10:1,2015-08-01T01:05:00Z,27.1690,-82.9260,-1.0,29.177,2 
COMPS,ioos:station:USF.COMPS:C10:1,2015-08-01T01:35:00Z,27.1690,-82.9260,-1.0,29.161,2 
COMPS,ioos:station:USF.COMPS:C10:1,2015-08-01T02:05:00Z,27.1690,-82.9260,-1.0,29.137,2 
COMPS,ioos:station:USF.COMPS:C10:1,2015-08-01T02:35:00Z,27.1690,-82.9260,-1.0,29.154,2 
COMPS,ioos:station:USF.COMPS:C10:1,2015-08-01T04:05:00Z,27.1690,-82.9260,-1.0,29.141,2 
COMPS,ioos:station:USF.COMPS:C10:1,2015-08-01T04:35:00Z,27.1690,-82.9260,-1.0,29.129,2 
COMPS,ioos:station:USF.COMPS:C10:1,2015-08-01T05:05:00Z,27.1690,-82.9260,-1.0,29.139,2 
COMPS,ioos:station:USF.COMPS:C10:1,2015-08-01T05:35:00Z,27.1690,-82.9260,-1.0,29.13,2 
COMPS,ioos:station:USF.COMPS:C10:1,2015-08-01T06:05:00Z,27.1690,-82.9260,-1.0,29.124,2 
COMPS,ioos:station:USF.COMPS:C10:1,2015-08-01T06:35:00Z,27.1690,-82.9260,-1.0,29.121,2 
COMPS,ioos:station:USF.COMPS:C10:1,2015-08-01T07:05:00Z,27.1690,-82.9260,-1.0,29.113,2 
COMPS,ioos:station:USF.COMPS:C10:1,2015-08-01T07:35:00Z,27.1690,-82.9260,-1.0,29.117,2 
COMPS,ioos:station:USF.COMPS:C10:1,2015-08-01T08:05:00Z,27.1690,-82.9260,-1.0,29.121,2 
COMPS,ioos:station:USF.COMPS:C10:1,2015-08-01T08:35:00Z,27.1690,-82.9260,-1.0,29.118,2 
COMPS,ioos:station:USF.COMPS:C10:1,2015-08-01T09:05:00Z,27.1690,-82.9260,-1.0,29.115,2 
COMPS,ioos:station:USF.COMPS:C10:1,2015-08-01T09:35:00Z,27.1690,-82.9260,-1.0,29.109,2 
COMPS,ioos:station:USF.COMPS:C10:1,2015-08-01T10:05:00Z,27.1690,-82.9260,-1.0,29.092,2 
COMPS,ioos:station:USF.COMPS:C10:1,2015-08-01T10:35:00Z,27.1690,-82.9260,-1.0,29.103,2 
COMPS,ioos:station:USF.COMPS:C10:1,2015-08-01T11:05:00Z,27.1690,-82.9260,-1.0,29.093,2 
COMPS,ioos:station:USF.COMPS:C10:1,2015-08-01T11:35:00Z,27.1690,-82.9260,-1.0,29.083,2 
COMPS,ioos:station:USF.COMPS:C10:1,2015-08-01T12:05:00Z,27.1690,-82.9260,-1.0,29.084,2 
COMPS,ioos:station:USF.COMPS:C10:1,2015-08-01T12:35:00Z,27.1690,-82.9260,-1.0,29.075,2 
COMPS,ioos:station:USF.COMPS:C10:1,2015-08-01T13:05:00Z,27.1690,-82.9260,-1.0,29.081,2 
COMPS,ioos:station:USF.COMPS:C10:1,2015-08-01T13:35:00Z,27.1690,-82.9260,-1.0,29.084,2 
COMPS,ioos:station:USF.COMPS:C10:1,2015-08-01T14:05:00Z,27.1690,-82.9260,-1.0,29.085,2 
COMPS,ioos:station:USF.COMPS:C10:1,2015-08-01T14:35:00Z,27.1690,-82.9260,-1.0,29.081,2 
COMPS,ioos:station:USF.COMPS:C10:1,2015-08-01T15:05:00Z,27.1690,-82.9260,-1.0,29.085,2 
COMPS,ioos:station:USF.COMPS:C10:1,2015-08-01T15:35:00Z,27.1690,-82.9260,-1.0,29.101,2 
COMPS,ioos:station:USF.COMPS:C10:1,2015-08-01T16:05:00Z,27.1690,-82.9260,-1.0,29.105,2 
COMPS,ioos:station:USF.COMPS:C10:1,2015-08-01T16:35:00Z,27.1690,-82.9260,-1.0,29.113,2 
COMPS,ioos:station:USF.COMPS:C10:1,2015-08-01T17:05:00Z,27.1690,-82.9260,-1.0,29.124,2 
COMPS,ioos:station:USF.COMPS:C10:1,2015-08-01T17:35:00Z,27.1690,-82.9260,-1.0,29.157,2 
COMPS,ioos:station:USF.COMPS:C10:1,2015-08-01T18:05:00Z,27.1690,-82.9260,-1.0,29.162,2 
COMPS,ioos:station:USF.COMPS:C10:1,2015-08-01T18:35:00Z,27.1690,-82.9260,-1.0,29.162,2 
COMPS,ioos:station:USF.COMPS:C10:1,2015-08-01T19:05:00Z,27.1690,-82.9260,-1.0,29.162,2 
COMPS,ioos:station:USF.COMPS:C10:1,2015-08-01T19:35:00Z,27.1690,-82.9260,-1.0,29.159,2 
COMPS,ioos:station:USF.COMPS:C10:1,2015-08-01T20:05:00Z,27.1690,-82.9260,-1.0,29.159,2 
COMPS,ioos:station:USF.COMPS:C10:1,2015-08-01T20:35:00Z,27.1690,-82.9260,-1.0,29.161,2 
COMPS,ioos:station:USF.COMPS:C10:1,2015-08-01T21:05:00Z,27.1690,-82.9260,-1.0,29.164,2 
COMPS,ioos:station:USF.COMPS:C10:1,2015-08-01T21:35:00Z,27.1690,-82.9260,-1.0,29.173,2 
COMPS,ioos:station:USF.COMPS:C10:1,2015-08-01T22:05:00Z,27.1690,-82.9260,-1.0,29.177,2 
COMPS,ioos:station:USF.COMPS:C10:1,2015-08-01T22:35:00Z,27.1690,-82.9260,-1.0,29.172,2 
COMPS,ioos:station:USF.COMPS:C10:1,2015-08-02T04:05:00Z,27.1690,-82.9260,-1.0,29.085,2 
COMPS,ioos:station:USF.COMPS:C10:1,2015-08-02T04:35:00Z,27.1690,-82.9260,-1.0,29.078,2 
COMPS,ioos:station:USF.COMPS:C10:1,2015-08-02T05:05:00Z,27.1690,-82.9260,-1.0,29.064,2 
COMPS,ioos:station:USF.COMPS:C10:1,2015-08-02T05:35:00Z,27.1690,-82.9260,-1.0,29.062,2 
COMPS,ioos:station:USF.COMPS:C10:1,2015-08-02T06:05:00Z,27.1690,-82.9260,-1.0,29.04,2 
COMPS,ioos:station:USF.COMPS:C10:1,2015-08-02T06:35:00Z,27.1690,-82.9260,-1.0,29.049,2 
COMPS,ioos:station:USF.COMPS:C10:1,2015-08-02T07:05:00Z,27.1690,-82.9260,-1.0,29.029,2 
COMPS,ioos:station:USF.COMPS:C10:1,2015-08-02T07:35:00Z,27.1690,-82.9260,-1.0,29.011,2 
COMPS,ioos:station:USF.COMPS:C10:1,2015-08-02T08:05:00Z,27.1690,-82.9260,-1.0,29.015,2 
COMPS,ioos:station:USF.COMPS:C10:1,2015-08-02T08:35:00Z,27.1690,-82.9260,-1.0,29.021,2 
COMPS,ioos:station:USF.COMPS:C10:1,2015-08-02T09:05:00Z,27.1690,-82.9260,-1.0,29.011,2 
COMPS,ioos:station:USF.COMPS:C10:1,2015-08-02T09:35:00Z,27.1690,-82.9260,-1.0,29.01,2 
COMPS,ioos:station:USF.COMPS:C10:1,2015-08-02T10:05:00Z,27.1690,-82.9260,-1.0,29.013,2 
COMPS,ioos:station:USF.COMPS:C10:1,2015-08-02T10:35:00Z,27.1690,-82.9260,-1.0,29.012,2 
COMPS,ioos:station:USF.COMPS:C10:1,2015-08-02T11:05:00Z,27.1690,-82.9260,-1.0,28.989,2 
COMPS,ioos:station:USF.COMPS:C10:1,2015-08-02T11:35:00Z,27.1690,-82.9260,-1.0,29.0,2 
COMPS,ioos:station:USF.COMPS:C10:1,2015-08-02T12:05:00Z,27.1690,-82.9260,-1.0,29.008,2 
COMPS,ioos:station:USF.COMPS:C10:1,2015-08-02T12:35:00Z,27.1690,-82.9260,-1.0,29.004,2 
COMPS,ioos:station:USF.COMPS:C10:1,2015-08-02T13:05:00Z,27.1690,-82.9260,-1.0,28.99,2 
COMPS,ioos:station:USF.COMPS:C10:1,2015-08-02T13:35:00Z,27.1690,-82.9260,-1.0,28.973,2 
COMPS,ioos:station:USF.COMPS:C10:1,2015-08-02T14:05:00Z,27.1690,-82.9260,-1.0,28.989,2 
COMPS,ioos:station:USF.COMPS:C10:1,2015-08-02T14:35:00Z,27.1690,-82.9260,-1.0,28.962,2 
COMPS,ioos:station:USF.COMPS:C10:1,2015-08-02T15:05:00Z,27.1690,-82.9260,-1.0,28.966,2 
COMPS,ioos:station:USF.COMPS:C10:1,2015-08-02T15:35:00Z,27.1690,-82.9260,-1.0,28.972,2 
COMPS,ioos:station:USF.COMPS:C10:1,2015-08-02T16:05:00Z,27.1690,-82.9260,-1.0,28.983,2 
COMPS,ioos:station:USF.COMPS:C10:1,2015-08-02T16:35:00Z,27.1690,-82.9260,-1.0,28.973,2 
COMPS,ioos:station:USF.COMPS:C10:1,2015-08-02T17:05:00Z,27.1690,-82.9260,-1.0,28.982,2 
COMPS,ioos:station:USF.COMPS:C10:1,2015-08-02T17:35:00Z,27.1690,-82.9260,-1.0,28.963,2 
COMPS,ioos:station:USF.COMPS:C10:1,2015-08-02T18:05:00Z,27.1690,-82.9260,-1.0,28.981,2 
COMPS,ioos:station:USF.COMPS:C10:1,2015-08-02T18:35:00Z,27.1690,-82.9260,-1.0,28.964,2 
COMPS,ioos:station:USF.COMPS:C10:1,2015-08-02T19:05:00Z,27.1690,-82.9260,-1.0,28.952,2 
COMPS,ioos:station:USF.COMPS:C10:1,2015-08-02T19:35:00Z,27.1690,-82.9260,-1.0,28.961,2 
COMPS,ioos:station:USF.COMPS:C10:1,2015-08-02T20:05:00Z,27.1690,-82.9260,-1.0,28.959,2 
COMPS,ioos:station:USF.COMPS:C10:1,2015-08-02T20:35:00Z,27.1690,-82.9260,-1.0,28.972,2 
COMPS,ioos:station:USF.COMPS:C10:1,2015-08-02T21:05:00Z,27.1690,-82.9260,-1.0,28.973,2 
COMPS,ioos:station:USF.COMPS:C10:1,2015-08-02T21:35:00Z,27.1690,-82.9260,-1.0,28.974,2 
COMPS,ioos:station:USF.COMPS:C10:1,2015-08-02T22:05:00Z,27.1690,-82.9260,-1.0,28.96,2 
COMPS,ioos:station:USF.COMPS:C10:1,2015-08-02T22:35:00Z,27.1690,-82.9260,-1.0,28.964,2 
COMPS,ioos:station:USF.COMPS:C10:1,2015-08-02T23:05:00Z,27.1690,-82.9260,-1.0,28.953,2 
COMPS,ioos:station:USF.COMPS:C10:1,2015-08-02T23:35:00Z,27.1690,-82.9260,-1.0,28.955,2 
COMPS,ioos:station:USF.COMPS:C10:1,2015-08-03T00:05:00Z,27.1690,-82.9260,-1.0,28.953,2 
COMPS,ioos:station:USF.COMPS:C10:1,2015-08-03T00:35:00Z,27.1690,-82.9260,-1.0,28.941,2 
COMPS,ioos:station:USF.COMPS:C10:1,2015-08-03T02:05:00Z,27.1690,-82.9260,-1.0,28.92,2 
COMPS,ioos:station:USF.COMPS:C10:1,2015-08-03T02:35:00Z,27.1690,-82.9260,-1.0,28.93,2 
COMPS,ioos:station:USF.COMPS:C10:1,2015-08-03T04:05:00Z,27.1690,-82.9260,-1.0,28.892,2 
COMPS,ioos:station:USF.COMPS:C10:1,2015-08-03T04:35:00Z,27.1690,-82.9260,-1.0,28.893,2 
COMPS,ioos:station:USF.COMPS:C10:1,2015-08-03T05:05:00Z,27.1690,-82.9260,-1.0,28.895,2 
COMPS,ioos:station:USF.COMPS:C10:1,2015-08-03T05:35:00Z,27.1690,-82.9260,-1.0,28.875,2 
COMPS,ioos:station:USF.COMPS:C10:1,2015-08-03T06:05:00Z,27.1690,-82.9260,-1.0,28.877,2 
COMPS,ioos:station:USF.COMPS:C10:1,2015-08-03T06:35:00Z,27.1690,-82.9260,-1.0,28.859,2 
COMPS,ioos:station:USF.COMPS:C10:1,2015-08-03T07:05:00Z,27.1690,-82.9260,-1.0,28.865,2 
COMPS,ioos:station:USF.COMPS:C10:1,2015-08-03T07:35:00Z,27.1690,-82.9260,-1.0,28.837,2 
COMPS,ioos:station:USF.COMPS:C10:1,2015-08-03T08:05:00Z,27.1690,-82.9260,-1.0,28.836,2 
COMPS,ioos:station:USF.COMPS:C10:1,2015-08-03T08:35:00Z,27.1690,-82.9260,-1.0,28.836,2 
COMPS,ioos:station:USF.COMPS:C10:1,2015-08-03T09:05:00Z,27.1690,-82.9260,-1.0,28.821,2 
COMPS,ioos:station:USF.COMPS:C10:1,2015-08-03T09:35:00Z,27.1690,-82.9260,-1.0,28.813,2 
COMPS,ioos:station:USF.COMPS:C10:1,2015-08-03T10:05:00Z,27.1690,-82.9260,-1.0,28.8,2 
COMPS,ioos:station:USF.COMPS:C10:1,2015-08-03T10:35:00Z,27.1690,-82.9260,-1.0,28.782,2 
COMPS,ioos:station:USF.COMPS:C10:1,2015-08-03T11:05:00Z,27.1690,-82.9260,-1.0,28.792,2 
COMPS,ioos:station:USF.COMPS:C10:1,2015-08-03T11:35:00Z,27.1690,-82.9260,-1.0,28.8,2 
COMPS,ioos:station:USF.COMPS:C10:1,2015-08-03T12:05:00Z,27.1690,-82.9260,-1.0,28.776,2 
COMPS,ioos:station:USF.COMPS:C10:1,2015-08-03T12:35:00Z,27.1690,-82.9260,-1.0,28.75,2 
COMPS,ioos:station:USF.COMPS:C10:1,2015-08-03T13:05:00Z,27.1690,-82.9260,-1.0,28.74,2 
COMPS,ioos:station:USF.COMPS:C10:1,2015-08-03T13:35:00Z,27.1690,-82.9260,-1.0,28.742,2 
COMPS,ioos:station:USF.COMPS:C10:1,2015-08-03T14:05:00Z,27.1690,-82.9260,-1.0,28.73,2 
COMPS,ioos:station:USF.COMPS:C10:1,2015-08-03T14:35:00Z,27.1690,-82.9260,-1.0,28.714,2 
COMPS,ioos:station:USF.COMPS:C10:1,2015-08-03T15:05:00Z,27.1690,-82.9260,-1.0,28.709,2 
COMPS,ioos:station:USF.COMPS:C10:1,2015-08-03T15:35:00Z,27.1690,-82.9260,-1.0,28.712,2 
COMPS,ioos:station:USF.COMPS:C10:1,2015-08-03T16:05:00Z,27.1690,-82.9260,-1.0,28.715,2 
COMPS,ioos:station:USF.COMPS:C10:1,2015-08-03T16:35:00Z,27.1690,-82.9260,-1.0,28.717,2 
COMPS,ioos:station:USF.COMPS:C10:1,2015-08-03T17:05:00Z,27.1690,-82.9260,-1.0,28.718,2 
COMPS,ioos:station:USF.COMPS:C10:1,2015-08-03T17:35:00Z,27.1690,-82.9260,-1.0,28.713,2 
COMPS,ioos:station:USF.COMPS:C10:1,2015-08-03T18:05:00Z,27.1690,-82.9260,-1.0,28.707,2 
COMPS,ioos:station:USF.COMPS:C10:1,2015-08-03T18:35:00Z,27.1690,-82.9260,-1.0,28.717,2 
COMPS,ioos:station:USF.COMPS:C10:1,2015-08-03T19:05:00Z,27.1690,-82.9260,-1.0,28.723,2 
COMPS,ioos:station:USF.COMPS:C10:1,2015-08-03T19:35:00Z,27.1690,-82.9260,-1.0,28.721,2 
COMPS,ioos:station:USF.COMPS:C10:1,2015-08-03T20:05:00Z,27.1690,-82.9260,-1.0,28.724,2 
COMPS,ioos:station:USF.COMPS:C10:1,2015-08-03T20:35:00Z,27.1690,-82.9260,-1.0,28.73,2 
COMPS,ioos:station:USF.COMPS:C10:1,2015-08-03T21:05:00Z,27.1690,-82.9260,-1.0,28.746,2 
COMPS,ioos:station:USF.COMPS:C10:1,2015-08-03T21:35:00Z,27.1690,-82.9260,-1.0,28.739,2 
COMPS,ioos:station:USF.COMPS:C10:1,2015-08-03T22:05:00Z,27.1690,-82.9260,-1.0,28.75,2 
COMPS,ioos:station:USF.COMPS:C10:1,2015-08-03T22:35:00Z,27.1690,-82.9260,-1.0,28.747,2 
COMPS,ioos:station:USF.COMPS:C10:1,2015-08-03T23:05:00Z,27.1690,-82.9260,-1.0,28.742,2 
COMPS,ioos:station:USF.COMPS:C10:1,2015-08-03T23:35:00Z,27.1690,-82.9260,-1.0,28.725,2 
COMPS,ioos:station:USF.COMPS:C10:1,2015-08-04T00:05:00Z,27.1690,-82.9260,-1.0,28.721,2 
COMPS,ioos:station:USF.COMPS:C10:1,2015-08-04T00:35:00Z,27.1690,-82.9260,-1.0,28.717,2 
COMPS,ioos:station:USF.COMPS:C10:1,2015-08-04T04:05:00Z,27.1690,-82.9260,-1.0,28.684,2 
COMPS,ioos:station:USF.COMPS:C10:1,2015-08-04T04:35:00Z,27.1690,-82.9260,-1.0,28.692,2 
COMPS,ioos:station:USF.COMPS:C10:1,2015-08-04T05:05:00Z,27.1690,-82.9260,-1.0,28.674,2 
COMPS,ioos:station:USF.COMPS:C10:1,2015-08-04T05:35:00Z,27.1690,-82.9260,-1.0,28.691,2 
COMPS,ioos:station:USF.COMPS:C10:1,2015-08-04T06:05:00Z,27.1690,-82.9260,-1.0,28.692,2 
COMPS,ioos:station:USF.COMPS:C10:1,2015-08-04T06:35:00Z,27.1690,-82.9260,-1.0,28.67,2 
COMPS,ioos:station:USF.COMPS:C10:1,2015-08-04T07:05:00Z,27.1690,-82.9260,-1.0,28.671,2 
COMPS,ioos:station:USF.COMPS:C10:1,2015-08-04T07:35:00Z,27.1690,-82.9260,-1.0,28.666,2 
COMPS,ioos:station:USF.COMPS:C10:1,2015-08-04T08:05:00Z,27.1690,-82.9260,-1.0,28.667,2 
COMPS,ioos:station:USF.COMPS:C10:1,2015-08-04T08:35:00Z,27.1690,-82.9260,-1.0,28.667,2 
COMPS,ioos:station:USF.COMPS:C10:1,2015-08-04T09:05:00Z,27.1690,-82.9260,-1.0,28.678,2 
COMPS,ioos:station:USF.COMPS:C10:1,2015-08-04T09:35:00Z,27.1690,-82.9260,-1.0,28.658,2 
COMPS,ioos:station:USF.COMPS:C10:1,2015-08-04T10:05:00Z,27.1690,-82.9260,-1.0,28.645,2 
COMPS,ioos:station:USF.COMPS:C10:1,2015-08-04T10:35:00Z,27.1690,-82.9260,-1.0,28.632,2 
COMPS,ioos:station:USF.COMPS:C10:1,2015-08-04T11:05:00Z,27.1690,-82.9260,-1.0,28.655,2 
COMPS,ioos:station:USF.COMPS:C10:1,2015-08-04T11:35:00Z,27.1690,-82.9260,-1.0,28.645,2 
COMPS,ioos:station:USF.COMPS:C10:1,2015-08-04T12:05:00Z,27.1690,-82.9260,-1.0,28.66,2 
COMPS,ioos:station:USF.COMPS:C10:1,2015-08-04T12:35:00Z,27.1690,-82.9260,-1.0,28.66,2 
COMPS,ioos:station:USF.COMPS:C10:1,2015-08-04T13:05:00Z,27.1690,-82.9260,-1.0,28.654,2 
COMPS,ioos:station:USF.COMPS:C10:1,2015-08-04T13:35:00Z,27.1690,-82.9260,-1.0,28.658,2 
COMPS,ioos:station:USF.COMPS:C10:1,2015-08-04T14:05:00Z,27.1690,-82.9260,-1.0,28.681,2 
COMPS,ioos:station:USF.COMPS:C10:1,2015-08-04T14:35:00Z,27.1690,-82.9260,-1.0,28.719,2 
COMPS,ioos:station:USF.COMPS:C10:1,2015-08-04T15:05:00Z,27.1690,-82.9260,-1.0,28.785,2 
COMPS,ioos:station:USF.COMPS:C10:1,2015-08-04T15:35:00Z,27.1690,-82.9260,-1.0,28.877,2 
COMPS,ioos:station:USF.COMPS:C10:1,2015-08-04T16:05:00Z,27.1690,-82.9260,-1.0,29.036,2 
COMPS,ioos:station:USF.COMPS:C10:1,2015-08-04T16:35:00Z,27.1690,-82.9260,-1.0,29.11,2 
COMPS,ioos:station:USF.COMPS:C10:1,2015-08-04T17:05:00Z,27.1690,-82.9260,-1.0,29.233,2 
COMPS,ioos:station:USF.COMPS:C10:1,2015-08-04T17:35:00Z,27.1690,-82.9260,-1.0,29.28,2 
COMPS,ioos:station:USF.COMPS:C10:1,2015-08-04T18:05:00Z,27.1690,-82.9260,-1.0,29.451,2 
COMPS,ioos:station:USF.COMPS:C10:1,2015-08-04T18:35:00Z,27.1690,-82.9260,-1.0,29.606,2 
COMPS,ioos:station:USF.COMPS:C10:1,2015-08-04T19:05:00Z,27.1690,-82.9260,-1.0,29.735,2 
COMPS,ioos:station:USF.COMPS:C10:1,2015-08-04T19:35:00Z,27.1690,-82.9260,-1.0,29.871,2 
COMPS,ioos:station:USF.COMPS:C10:1,2015-08-04T20:05:00Z,27.1690,-82.9260,-1.0,29.874,2 
COMPS,ioos:station:USF.COMPS:C10:1,2015-08-04T20:35:00Z,27.1690,-82.9260,-1.0,30.044,2 
COMPS,ioos:station:USF.COMPS:C10:1,2015-08-04T21:05:00Z,27.1690,-82.9260,-1.0,29.998,2 
COMPS,ioos:station:USF.COMPS:C10:1,2015-08-04T21:35:00Z,27.1690,-82.9260,-1.0,30.059,2 
COMPS,ioos:station:USF.COMPS:C10:1,2015-08-04T22:05:00Z,27.1690,-82.9260,-1.0,30.049,2 
COMPS,ioos:station:USF.COMPS:C10:1,2015-08-04T22:35:00Z,27.1690,-82.9260,-1.0,30.066,2 
COMPS,ioos:station:USF.COMPS:C10:1,2015-08-05T00:05:00Z,27.1690,-82.9260,-1.0,29.642,2 
COMPS,ioos:station:USF.COMPS:C10:1,2015-08-05T00:35:00Z,27.1690,-82.9260,-1.0,29.635,2 
COMPS,ioos:station:USF.COMPS:C10:1,2015-08-05T04:05:00Z,27.1690,-82.9260,-1.0,29.506,2 
COMPS,ioos:station:USF.COMPS:C10:1,2015-08-05T04:35:00Z,27.1690,-82.9260,-1.0,29.48,2 
COMPS,ioos:station:USF.COMPS:C10:1,2015-08-05T05:05:00Z,27.1690,-82.9260,-1.0,29.431,2 
COMPS,ioos:station:USF.COMPS:C10:1,2015-08-05T05:35:00Z,27.1690,-82.9260,-1.0,29.406,2 
COMPS,ioos:station:USF.COMPS:C10:1,2015-08-05T06:05:00Z,27.1690,-82.9260,-1.0,29.387,2 
COMPS,ioos:station:USF.COMPS:C10:1,2015-08-05T06:35:00Z,27.1690,-82.9260,-1.0,29.375,2 
COMPS,ioos:station:USF.COMPS:C10:1,2015-08-05T07:05:00Z,27.1690,-82.9260,-1.0,29.353,2 
COMPS,ioos:station:USF.COMPS:C10:1,2015-08-05T07:35:00Z,27.1690,-82.9260,-1.0,29.329,2 
COMPS,ioos:station:USF.COMPS:C10:1,2015-08-05T08:05:00Z,27.1690,-82.9260,-1.0,29.292,2 
COMPS,ioos:station:USF.COMPS:C10:1,2015-08-05T08:35:00Z,27.1690,-82.9260,-1.0,29.258,2 
COMPS,ioos:station:USF.COMPS:C10:1,2015-08-05T09:05:00Z,27.1690,-82.9260,-1.0,29.219,2 
COMPS,ioos:station:USF.COMPS:C10:1,2015-08-05T09:35:00Z,27.1690,-82.9260,-1.0,29.181,2 
COMPS,ioos:station:USF.COMPS:C10:1,2015-08-05T10:05:00Z,27.1690,-82.9260,-1.0,29.15,2 
COMPS,ioos:station:USF.COMPS:C10:1,2015-08-05T10:35:00Z,27.1690,-82.9260,-1.0,29.135,2 
COMPS,ioos:station:USF.COMPS:C10:1,2015-08-05T11:05:00Z,27.1690,-82.9260,-1.0,29.073,2 
COMPS,ioos:station:USF.COMPS:C10:1,2015-08-05T11:35:00Z,27.1690,-82.9260,-1.0,29.057,2 
COMPS,ioos:station:USF.COMPS:C10:1,2015-08-05T12:05:00Z,27.1690,-82.9260,-1.0,29.014,2 
COMPS,ioos:station:USF.COMPS:C10:1,2015-08-05T12:35:00Z,27.1690,-82.9260,-1.0,28.995,2 
COMPS,ioos:station:USF.COMPS:C10:1,2015-08-05T13:05:00Z,27.1690,-82.9260,-1.0,29.022,2 
COMPS,ioos:station:USF.COMPS:C10:1,2015-08-05T13:35:00Z,27.1690,-82.9260,-1.0,29.07,2 
COMPS,ioos:station:USF.COMPS:C10:1,2015-08-05T14:05:00Z,27.1690,-82.9260,-1.0,29.086,2 
COMPS,ioos:station:USF.COMPS:C10:1,2015-08-05T14:35:00Z,27.1690,-82.9260,-1.0,29.154,2 
COMPS,ioos:station:USF.COMPS:C10:1,2015-08-05T15:05:00Z,27.1690,-82.9260,-1.0,29.214,2 
COMPS,ioos:station:USF.COMPS:C10:1,2015-08-05T15:35:00Z,27.1690,-82.9260,-1.0,29.291,2 
COMPS,ioos:station:USF.COMPS:C10:1,2015-08-05T16:05:00Z,27.1690,-82.9260,-1.0,29.388,2 
COMPS,ioos:station:USF.COMPS:C10:1,2015-08-05T16:35:00Z,27.1690,-82.9260,-1.0,29.513,2 
COMPS,ioos:station:USF.COMPS:C10:1,2015-08-05T17:05:00Z,27.1690,-82.9260,-1.0,29.568,2 
COMPS,ioos:station:USF.COMPS:C10:1,2015-08-05T17:35:00Z,27.1690,-82.9260,-1.0,29.656,2 
COMPS,ioos:station:USF.COMPS:C10:1,2015-08-05T18:05:00Z,27.1690,-82.9260,-1.0,29.746,2 
COMPS,ioos:station:USF.COMPS:C10:1,2015-08-05T18:35:00Z,27.1690,-82.9260,-1.0,29.905,2 
COMPS,ioos:station:USF.COMPS:C10:1,2015-08-05T19:05:00Z,27.1690,-82.9260,-1.0,29.977,2 
COMPS,ioos:station:USF.COMPS:C10:1,2015-08-05T19:35:00Z,27.1690,-82.9260,-1.0,30.101,2 
COMPS,ioos:station:USF.COMPS:C10:1,2015-08-05T20:05:00Z,27.1690,-82.9260,-1.0,30.252,2 
COMPS,ioos:station:USF.COMPS:C10:1,2015-08-05T20:35:00Z,27.1690,-82.9260,-1.0,30.356,2 
COMPS,ioos:station:USF.COMPS:C10:1,2015-08-05T21:05:00Z,27.1690,-82.9260,-1.0,30.695,2 
COMPS,ioos:station:USF.COMPS:C10:1,2015-08-05T21:35:00Z,27.1690,-82.9260,-1.0,30.363,2 
COMPS,ioos:station:USF.COMPS:C10:1,2015-08-05T22:05:00Z,27.1690,-82.9260,-1.0,30.705,2 
COMPS,ioos:station:USF.COMPS:C10:1,2015-08-05T22:35:00Z,27.1690,-82.9260,-1.0,30.579,2 
COMPS,ioos:station:USF.COMPS:C10:1,2015-08-05T23:05:00Z,27.1690,-82.9260,-1.0,30.644,2 
COMPS,ioos:station:USF.COMPS:C10:1,2015-08-05T23:35:00Z,27.1690,-82.9260,-1.0,30.654,2 
COMPS,ioos:station:USF.COMPS:C10:1,2015-08-06T00:05:00Z,27.1690,-82.9260,-1.0,30.592,2 
COMPS,ioos:station:USF.COMPS:C10:1,2015-08-06T00:35:00Z,27.1690,-82.9260,-1.0,30.394,2 
COMPS,ioos:station:USF.COMPS:C10:1,2015-08-06T01:05:00Z,27.1690,-82.9260,-1.0,30.36,2 
COMPS,ioos:station:USF.COMPS:C10:1,2015-08-06T01:35:00Z,27.1690,-82.9260,-1.0,30.27,2 
COMPS,ioos:station:USF.COMPS:C10:1,2015-08-06T05:05:00Z,27.1690,-82.9260,-1.0,30.046,2 
COMPS,ioos:station:USF.COMPS:C10:1,2015-08-06T05:35:00Z,27.1690,-82.9260,-1.0,29.882,2 
COMPS,ioos:station:USF.COMPS:C10:1,2015-08-06T06:05:00Z,27.1690,-82.9260,-1.0,29.794,2 
COMPS,ioos:station:USF.COMPS:C10:1,2015-08-06T06:35:00Z,27.1690,-82.9260,-1.0,29.732,2 
COMPS,ioos:station:USF.COMPS:C10:1,2015-08-06T07:05:00Z,27.1690,-82.9260,-1.0,29.665,2 
COMPS,ioos:station:USF.COMPS:C10:1,2015-08-06T07:35:00Z,27.1690,-82.9260,-1.0,29.593,2 
COMPS,ioos:station:USF.COMPS:C10:1,2015-08-06T08:05:00Z,27.1690,-82.9260,-1.0,29.542,2 
COMPS,ioos:station:USF.COMPS:C10:1,2015-08-06T08:35:00Z,27.1690,-82.9260,-1.0,29.552,2 
COMPS,ioos:station:USF.COMPS:C10:1,2015-08-06T09:05:00Z,27.1690,-82.9260,-1.0,29.532,2 
COMPS,ioos:station:USF.COMPS:C10:1,2015-08-06T09:35:00Z,27.1690,-82.9260,-1.0,29.527,2 
COMPS,ioos:station:USF.COMPS:C10:1,2015-08-06T10:05:00Z,27.1690,-82.9260,-1.0,29.519,2 
COMPS,ioos:station:USF.COMPS:C10:1,2015-08-06T10:35:00Z,27.1690,-82.9260,-1.0,29.467,2 
COMPS,ioos:station:USF.COMPS:C10:1,2015-08-06T11:05:00Z,27.1690,-82.9260,-1.0,29.509,2 
COMPS,ioos:station:USF.COMPS:C10:1,2015-08-06T11:35:00Z,27.1690,-82.9260,-1.0,29.502,2 
COMPS,ioos:station:USF.COMPS:C10:1,2015-08-06T12:05:00Z,27.1690,-82.9260,-1.0,29.444,2 
COMPS,ioos:station:USF.COMPS:C10:1,2015-08-06T12:35:00Z,27.1690,-82.9260,-1.0,29.453,2 
COMPS,ioos:station:USF.COMPS:C10:1,2015-08-06T13:05:00Z,27.1690,-82.9260,-1.0,29.452,2 
COMPS,ioos:station:USF.COMPS:C10:1,2015-08-06T13:35:00Z,27.1690,-82.9260,-1.0,29.442,2 
COMPS,ioos:station:USF.COMPS:C10:1,2015-08-06T14:05:00Z,27.1690,-82.9260,-1.0,29.497,2 
COMPS,ioos:station:USF.COMPS:C10:1,2015-08-06T14:35:00Z,27.1690,-82.9260,-1.0,29.554,2 
COMPS,ioos:station:USF.COMPS:C10:1,2015-08-06T15:05:00Z,27.1690,-82.9260,-1.0,29.492,2 
COMPS,ioos:station:USF.COMPS:C10:1,2015-08-06T15:35:00Z,27.1690,-82.9260,-1.0,29.616,2 
COMPS,ioos:station:USF.COMPS:C10:1,2015-08-06T16:05:00Z,27.1690,-82.9260,-1.0,29.711,2 
COMPS,ioos:station:USF.COMPS:C10:1,2015-08-06T16:35:00Z,27.1690,-82.9260,-1.0,29.954,2 
COMPS,ioos:station:USF.COMPS:C10:1,2015-08-06T17:05:00Z,27.1690,-82.9260,-1.0,30.026,2 
COMPS,ioos:station:USF.COMPS:C10:1,2015-08-06T17:35:00Z,27.1690,-82.9260,-1.0,29.873,2 
COMPS,ioos:station:USF.COMPS:C10:1,2015-08-06T18:05:00Z,27.1690,-82.9260,-1.0,29.75,2 
COMPS,ioos:station:USF.COMPS:C10:1,2015-08-06T18:35:00Z,27.1690,-82.9260,-1.0,29.719,2 
COMPS,ioos:station:USF.COMPS:C10:1,2015-08-06T19:05:00Z,27.1690,-82.9260,-1.0,29.78,2 
COMPS,ioos:station:USF.COMPS:C10:1,2015-08-06T19:35:00Z,27.1690,-82.9260,-1.0,29.859,2 
COMPS,ioos:station:USF.COMPS:C10:1,2015-08-06T20:05:00Z,27.1690,-82.9260,-1.0,29.881,2 
COMPS,ioos:station:USF.COMPS:C10:1,2015-08-06T20:35:00Z,27.1690,-82.9260,-1.0,30.003,2 
COMPS,ioos:station:USF.COMPS:C10:1,2015-08-06T21:05:00Z,27.1690,-82.9260,-1.0,30.16,2 
COMPS,ioos:station:USF.COMPS:C10:1,2015-08-06T21:35:00Z,27.1690,-82.9260,-1.0,30.152,2 
COMPS,ioos:station:USF.COMPS:C10:1,2015-08-06T22:05:00Z,27.1690,-82.9260,-1.0,30.312,2 
COMPS,ioos:station:USF.COMPS:C10:1,2015-08-06T22:35:00Z,27.1690,-82.9260,-1.0,30.188,2 
COMPS,ioos:station:USF.COMPS:C10:1,2015-08-06T23:05:00Z,27.1690,-82.9260,-1.0,30.09,2 
COMPS,ioos:station:USF.COMPS:C10:1,2015-08-06T23:35:00Z,27.1690,-82.9260,-1.0,30.07,2 
COMPS,ioos:station:USF.COMPS:C10:1,2015-08-07T00:05:00Z,27.1690,-82.9260,-1.0,29.937,2 
COMPS,ioos:station:USF.COMPS:C10:1,2015-08-07T00:35:00Z,27.1690,-82.9260,-1.0,29.862,2 
COMPS,ioos:station:USF.COMPS:C10:1,2015-08-07T01:05:00Z,27.1690,-82.9260,-1.0,29.831,2 
COMPS,ioos:station:USF.COMPS:C10:1,2015-08-07T01:35:00Z,27.1690,-82.9260,-1.0,29.756,2 
COMPS,ioos:station:USF.COMPS:C10:1,2015-08-07T02:05:00Z,27.1690,-82.9260,-1.0,29.735,2 
COMPS,ioos:station:USF.COMPS:C10:1,2015-08-07T02:35:00Z,27.1690,-82.9260,-1.0,29.687,2 
COMPS,ioos:station:USF.COMPS:C10:1,2015-08-07T04:05:00Z,27.1690,-82.9260,-1.0,29.641,2 
COMPS,ioos:station:USF.COMPS:C10:1,2015-08-07T04:35:00Z,27.1690,-82.9260,-1.0,29.626,2 
COMPS,ioos:station:USF.COMPS:C10:1,2015-08-07T05:05:00Z,27.1690,-82.9260,-1.0,29.611,2 
COMPS,ioos:station:USF.COMPS:C10:1,2015-08-07T05:35:00Z,27.1690,-82.9260,-1.0,29.551,2 
COMPS,ioos:station:USF.COMPS:C10:1,2015-08-07T06:05:00Z,27.1690,-82.9260,-1.0,29.542,2 
COMPS,ioos:station:USF.COMPS:C10:1,2015-08-07T06:35:00Z,27.1690,-82.9260,-1.0,29.555,2 
COMPS,ioos:station:USF.COMPS:C10:1,2015-08-07T07:05:00Z,27.1690,-82.9260,-1.0,29.565,2 
COMPS,ioos:station:USF.COMPS:C10:1,2015-08-07T07:35:00Z,27.1690,-82.9260,-1.0,29.563,2 
COMPS,ioos:station:USF.COMPS:C10:1,2015-08-07T08:05:00Z,27.1690,-82.9260,-1.0,29.531,2 
COMPS,ioos:station:USF.COMPS:C10:1,2015-08-07T08:35:00Z,27.1690,-82.9260,-1.0,29.508,2 
COMPS,ioos:station:USF.COMPS:C10:1,2015-08-07T09:05:00Z,27.1690,-82.9260,-1.0,29.486,2 
COMPS,ioos:station:USF.COMPS:C10:1,2015-08-07T09:35:00Z,27.1690,-82.9260,-1.0,29.459,2 
COMPS,ioos:station:USF.COMPS:C10:1,2015-08-07T10:05:00Z,27.1690,-82.9260,-1.0,29.44,2 
COMPS,ioos:station:USF.COMPS:C10:1,2015-08-07T10:35:00Z,27.1690,-82.9260,-1.0,29.44,2 